STARLINK-31668, 59580

Orbit data source: Space-Track

STARLINK-31668, 59580 is a payload satellite owned by SpaceX/Seattle (US) in LEO that was launched on Tue, 23 Apr 2024 UTC via an FALCON 9 launch vehicle from the Air Force Eastern Test Range (AFETR). Payload-class satellites include a variety of spacecraft equipped with specific instruments for various scientific and technological missions. These include communications satellites like Starlink; space stations such as the ISS; scientific satellites like the Hubble; Earth observation satellites from companies like Planet Labs, Umbra, and HawkEye 360; GPS; miniature CubeSats for education and research; and military/defense satellites.

Loading next visibility...
Identifier
59580, 2024-076S
Orbit
LEO
Country
Flag of USUS
Related business
Manufacturer
SpaceX/Seattle
Mission
Operational Commercial Communications
Bus & Motor
STARLINK V2M, Unknown motor
Mass
730 kg wet, ~700 kg dry
Launch date (UTC)
2024-04-23 (1 year ago)
Launch vehicle
FALCON 9
Launch site
Air Force Eastern Test Range (AFETR)
Object type
Payload
Rocket body
Debris
Shape & HBR
Box + 2 Pan, 17.7 m
Radar Cross Section
33.884 m², Large (>1 m²)

Expand to show TLE details & history
Last TLE update: 14 hours ago

TLE from 14 hours ago
0 STARLINK-31668
1 59580U 24076S   25288.89540437  .00002458  00000-0  98808-4 0  9997
2 59580  43.0020 106.2552 0002030 268.0883  91.9737 15.27586293 84364
Epoch: 2025-10-15T21:29Z
TLE epoch observation values (Epoch: 2025-10-15T21:29:22.937Z)
Latitude
0.00003°
Longitude
119.24675°
Altitude
482.854 km
Speed
7.626 km/s
True Right ascension
07h 05m 01s
True Declination
0° 00' 00"
Sunlit
Object was in daylight at epoch
Visualization orbit readout
Latitude
Unknown
Longitude
Unknown
Altitude
Unknown
Speed
Unknown
Apparent Right ascension
Unknown
Apparent Declination
Unknown
Sunlit
N/A
Visualization observer readout
Local Sidereal Time
06:04:26
Azimuth
Unknown
Elevation
Unknown
Doppler factor
Unknown
Orbital elements
Apogee altitude
486.368 km
Perigee altitude
483.582 km
Semi-major axis
6,863.112 km
Eccentricity
0.0002
Inclination
43.002°
RAAN
106.2552°
Arg. of periapsis
268.0883°
True anomaly
91.99695°
Mean anomaly
91.9737°
Eccentric anomaly
91.98532°
Mean motion
3.81735 °/min
Orbital period
94.31 mins
BSTAR
0.000098808
Loading maneuver chart data...
Computing Atmospheric mass density...
Loading historical data...
Loading historical data...
Loading historical data...
Loading historical data...
Loading historical data...
Loading historical data...
Loading historical data...

Documentation

Showing up to 5 results
|